This demonstration page uses our WeatherBlox Daily Observations layout. Learn more.

Left ArrowRight Arrow

38.83388, -104.82136

Hourly Observations for November 27, 2019

Temp ( °F °C ) Dew Point ( °F °C ) Humidity (%) Winds ( mph kmh ) Pressure ( in mb ) Visibility ( mi km ) Precip ( " mm )
12:58 am 00:58 Clear 15 -9.7 7 -13.7 73 73 WNW 5 7 29.76 1008 10 16 0.00 0.00
1:58 am 01:58 Mostly Clear 12 -10.9 7 -13.8 79 79 SW 3 6 29.80 1009 10 16 0.00 0.00
2:58 am 02:58 Mostly Cloudy 14 -10.1 8 -13.3 78 78 SSW 6 9 29.80 1009 10 16 0.00 0.00
3:58 am 03:58 Clear 12 -11 10 -12.5 89 89 S 3 6 29.82 1010 10 16 0.00 0.00
4:58 am 04:58 Partly Cloudy 12 -11.3 10 -12.1 94 94 SSE 7 11 29.85 1011 10 16 0.00 0.00
5:03 am 05:03 Mostly Cloudy 12 -11 10 -12 92 92 Calm 29.85 1011 10 16 0.00 0.00
5:13 am 05:13 Partly Cloudy 12 -11 10 -12 92 92 SSE 5 7 29.85 1011 10 16 0.00 0.00
5:58 am 05:58 Partly Cloudy 11 -11.5 9 -12.7 91 91 NW 5 7 29.86 1011 10 16 0.00 0.00
6:58 am 06:58 Mostly Cloudy 12 -11.2 10 -12 94 94 S 14 22 29.85 1011 10 16 0.00 0.00
7:58 am 07:58 Partly Cloudy 15 -9.4 11 -11.5 85 85 SSE 13 20 29.88 1012 10 16 0.00 0.00
8:58 am 08:58 Mostly Sunny 17 -8.3 12 -11.1 80 80 SE 17 28 29.88 1012 10 16 0.00 0.00
9:54 am 09:54 Mostly Cloudy 18 -8 12 -11 79 79 SE 18 30 29.90 1012 10 16 0.00 0.00
9:58 am 09:58 Mostly Cloudy 18 -7.6 12 -11 77 77 SE 18 30 29.90 1012 10 16 0.00 0.00
10:28 am 10:28 Mostly Cloudy 18 -8 14 -10 86 86 SSE 17 28 29.90 1012 10 16 0.00 0.00
10:29 am 10:29 Mostly Cloudy with Light Snow 19 -7 14 -10 79 79 SSE 16 26 29.88 1012 10 16 0.00 0.00
10:43 am 10:43 Mostly Cloudy 18 -8 12 -11 79 79 SSE 17 28 29.90 1012 10 16 0.00 0.00
10:58 am 10:58 Mostly Sunny 18 -7.6 13 -10.6 79 79 SSE 18 30 29.89 1012 10 16 0.00 0.00
11:58 am 11:58 Partly Cloudy 19 -7.4 12 -11.1 75 75 SSE 21 33 29.88 1012 10 16 0.00 0.00
12:58 pm 12:58 Mostly Sunny 20 -6.8 14 -9.8 79 79 SSE 20 31 29.84 1010 10 16 0.00 0.00
1:58 pm 13:58 Mostly Cloudy 18 -7.6 15 -9.6 86 86 SSE 18 30 29.83 1010 10 16 0.00 0.00
2:03 pm 14:03 Mostly Cloudy 18 -8 14 -10 86 86 SSE 17 28 29.84 1011 10 16 0.00 0.00
2:38 pm 14:38 Mostly Cloudy 18 -8 16 -9 93 93 SSE 20 31 29.84 1011 10 16 0.00 0.00
2:48 pm 14:48 Mostly Cloudy 18 -8 16 -9 93 93 SSE 22 35 29.83 1010 10 16 0.00 0.00
2:58 pm 14:58 Mostly Cloudy 18 -7.7 15 -9.3 88 88 SSE 21 33 29.83 1010 10 16 0.00 0.00
3:28 pm 15:28 Mostly Cloudy 18 -8 16 -9 93 93 SSE 22 35 29.87 1012 10 16 0.00 0.00
3:58 pm 15:58 Mostly Cloudy 24 -4.7 15 -9.4 70 70 N 6 9 29.84 1010 10 16 0.00 0.00
4:58 pm 16:58 Mostly Cloudy 20 -6.7 15 -9.5 81 81 S 10 17 29.87 1011 10 16 0.00 0.00
5:58 pm 17:58 Mostly Cloudy 20 -6.6 14 -10 77 77 S 12 19 29.83 1010 10 16 0.00 0.00
6:58 pm 18:58 Mostly Cloudy 18 -7.6 15 -9.4 87 87 S 12 19 29.83 1010 10 16 0.00 0.00
7:58 pm 19:58 Mostly Cloudy 20 -6.9 15 -9.5 82 82 SE 6 9 29.82 1010 10 16 0.00 0.00
8:58 pm 20:58 Mostly Clear 19 -7.5 15 -9.5 86 86 SSE 12 19 29.82 1010 10 16 0.00 0.00
9:58 pm 21:58 Mostly Cloudy 19 -7.3 14 -9.9 82 82 SSE 7 11 29.80 1009 10 16 0.00 0.00
10:59 pm 22:59 Mostly Cloudy 19 -7.2 15 -9.3 85 85 S 7 11 29.80 1009 10 16 0.00 0.00
11:59 pm 23:59 Cloudy 19 -7.3 16 -8.7 90 90 Calm 29.79 1009 10 16 0.00 0.00

Powered by AerisWeather